FENGYUN 1C DEB

Satellite information

Favourite Embed

Satellite Type and Status

DEBRISIN ORBIT

Key statistics

Satellite FENGYUN 1C DEB at a glance.

Uptime

9556

Days in orbit

Revolutions

≈ 14.1

Per day

Orbit

SSO

Sun Synchronous Orbit

Inclination

98.9

Latest

Satellite identification and parameters

Extended collection of information and parameters for FENGYUN 1C DEB.

Object identification

Identified? True

Debris? True

Object name: FENGYUN 1C DEB

International designator: 1999-025CKH

Object number (NORAD): 31882

Object ID (CCSDS): 31882

Country: PEOPLES REPUBLIC OF CHINA (PRC)

Current information (Y/N): Y

RCS size: SMALL

Orbital parameters

Period: 101.948 minutes

Inclination: 98.9108 deg

SMA: 7229.023 km

Apoapsis: 877.32 km

Periapsis: 824.457 km

RAAN: 106.413 deg

Eccentricy: 0.0036563

Argument of periapsis: 330.4572 deg

Mean anomaly: 29.4533 deg

Mean motion: 14.12483319 rev/day

Mean motion (dot): 0.00000731 rev/day2

B* drag term: 0.00041745 1/REarth

Two-line elements (TLE)

Creation date: July 2, 2025, 5:47 p.m.

Reference frame: TEME

Reference center: EARTH

Epoch: July 2, 2025, 12:53 a.m. UTC

TLE line 0: 0 FENGYUN 1C DEB

TLE line 1: 1 31882U 99025CKH 25183.03695485 .00000731 00000-0 41745-3 0 9991

TLE line 2: 2 31882 98.9108 106.4130 0036563 330.4572 29.4533 14.12483319563254

Live tracking on map

Real-time ground track for satellite FENGYUN 1C DEB.

In-orbit conjunctions

A list of the most updated potential collisions computed for object FENGYUN 1C DEB.

Target Orbit TCA Probability of collision Miss distance Type
OBJECT C LEO 2025-04-18 07:15:23 0.0001653937 97.0 (m) UNKNOWN
SL-16 R/B LEO 2024-11-12 17:34:35 0.0002613826 219.0 (m) ROCKET BODY

Associated space launch

Chinese polar orbiting meteorological satellite

FENGYUN 1C DEB was lifted into orbit during the mission ‘Long March 4B | Feng Yun 1C’, on board a Long March 4B space rocket.

The launch took place on May 10, 1999, 1:33 a.m. from Launch Complex 7.

For more information about the launch, click the button.

Launch to space Long March 4B | Feng Yun 1C
Long March 4B | Feng Yun 1C

Agency: N/A

Status: Launch Successful

Launch date: May 10, 1999, 1:33 a.m. UTC

Rocket: Long March 4B

Launch pad: Launch Complex 7

Location: Taiyuan Satellite Launch Center, People's Republic of China

...

Latest news about this satellite

There are no fresh news available about this satellite. Check back as we update our databases every day.


Newsletter sign-up

Weekly statistics, charts and insights to help you stay on top of the space industry.